Weather Roundup
Issued by NWS Chicago, IL

Home | Current Version | Previous Version | Text Only | Print | Product List | Glossary Off
Versions: 1 2 3 4 5 6 7 8 9 10 11 12 13 14 15 16 17 18 19 20 21 22 23 24 25 26 27 28 29 30 31 32 33 34 35 36 37 38 39 40 41 42 43 44 45 46 47 48 49 50

000
NZUS59 KLOT 220708
HRRLOT

CHICAGO AREA WEATHER ROUNDUP
NATIONAL WEATHER SERVICE CHICAGO/ROMEOVILLE IL
100 AM CST SUN JAN 22 2017

NOTE: "FAIR" INDICATES FEW OR NO CLOUDS BELOW 12,000 FEET WITH NO
SIGNIFICANT WEATHER AND/OR OBSTRUCTIONS TO VISIBILITY.

* THESE STATIONS ARE NOT UNDER NWS QUALITY CONTROL. THEY ALSO MAY NOT
  REPORT WEATHER SUCH AS PRECIPITATION OR FOG.

ILZ005-006-012>014-019>023-220800-
NORTHEAST ILLINOIS

CITY           SKY/WX    TMP DP  RH WIND       PRES   REMARKS
OHARE          CLOUDY    42  41  96 NW6       29.58F FOG
MIDWAY         FOG       42  40  92 NW6       29.60S VSB 1/4
AURORA         FOG       41  39  93 E3        29.59F VSB 1/4
LANSING*       MOCLDY    35  35 100 NW5       29.60R FOG     WCI  31
JOLIET*        FOG       42  42 100 CALM      29.60S VSB 1/2
WAUKEGAN       FOG       40  40 100 W6        29.57F VSB 1/4
DUPAGE AIRPORT FOG       41  39  93 CALM      29.58F VSB 1/4
WHEELING       CLOUDY    42  41  96 CALM      29.60F FOG
KANKAKEE*      FOG       38  37  98 CALM      29.59F VSB 3/4
MORRIS*        FOG       38  38  97 CALM      29.59F VSB 1
LEWIS AIRPORT* FOG       40  40 100 NE5       29.59F VSB 1/4
NORTHERLY ISL    N/A     41  39  93 W7          N/A
$$

WIZ051-052-058>065-066-070>072-220800-
SOUTHEAST WISCONSIN

CITY           SKY/WX    TMP DP  RH WIND       PRES   REMARKS
MILWAUKEE      PTCLDY    42  39  89 SW5       29.57F
KENOSHA*       FOG       37  37 100 W3        29.58S VSB 3/4
RACINE*        MOCLDY    41  38  89 W3        29.60S
WAUKESHA       CLOUDY    37  37 100 S5        29.58S FOG
WEST BEND      CLOUDY    39  39 100 CALM      29.56F FOG
$$

INZ001>003-010>013-019-020-220800-
NORTHWEST INDIANA

CITY           SKY/WX    TMP DP  RH WIND       PRES   REMARKS
GARY*          FOG       35  35 100 CALM      29.60R VSB 1/4
MICHIGAN CITY* NOT AVBL
RENSSELAER*    NOT AVBL
VALPARAISO     FOG       38  38 100 CALM      29.60S VSB 1/4
$$

LMZ740>746-220800-
SOUTHERN LAKE MICHIGAN

STATION/POSITION TIME  SKY/WX   TEMP WIND        PRES    VSBY
                                AIR  DIR/SP/G
                 (UTC)          (F)  (DEG/KT/KT) (MB)    (MI)
HARRISON CRIB    0640            42  310/ 10/ 10   N/A
BURNHAM HARBOR   0700            41  300/  5/ 10   N/A
CALUMET HARBOR   0642                340/  5/  7 1002.0R
BURNS HARBOR     0640            45  180/  4/  5 1003.0R
MICHIGAN CITY    0640            47  140/  4/  4   N/A
$$

ABBREVIATIONS USED IN REMARKS
   TC - TEMPERATURE IN CELSIUS
  WCI - WIND CHILL INDEX
   HX - HEAT INDEX
  VSB - VISIBILITY
$$




USA.gov is the U.S. government's official web portal to all federal, state and local government web resources and services.